Theta_e
298 299 300 299 299 299 299 299 298 297 297 298 298 297 298 298 299 299 300 300 310 317 318 320 321 325 327 327 326 326 324 326 326 328 329 329 331 334 334 335 335 334 334 331 332
301 299 298 299 300 299 299 299 296 296 297 299 299 298 297 297 298 299 301 302 300 306 314 318 321 324 327 327 326 324 323 325 323 323 327 328 329 334 334 334 334 335 334 333 332
301 299 298 299 300 300 300 299 297 295 296 297 298 298 297 297 298 306 315 314 311 302 308 315 320 324 327 327 325 323 324 323 324 324 323 326 326 334 333 332 334 334 334 332 331
302 301 300 301 301 300 300 300 299 298 297 298 298 297 297 297 297 311 312 308 313 314 312 315 319 323 327 325 326 324 324 325 325 325 323 322 326 327 334 334 334 334 334 332 330
305 303 302 302 303 302 299 299 300 300 299 298 298 298 297 298 298 299 300 299 300 309 314 318 319 321 325 326 326 323 323 325 326 325 325 322 322 325 331 332 333 332 334 332 330
306 306 305 303 303 303 300 299 299 299 299 298 299 299 298 299 298 299 300 300 302 307 311 314 317 321 323 325 325 325 325 325 325 325 323 321 322 323 326 331 332 330 333 332 330
307 306 306 305 304 303 301 299 298 298 299 298 300 299 300 298 298 300 305 302 300 309 308 311 312 315 320 324 325 327 326 324 325 325 324 324 323 322 327 331 332 332 332 331 329
305 304 303 303 304 303 302 299 298 298 299 299 300 298 298 299 302 305 305 306 304 304 307 310 309 311 317 321 323 327 327 329 325 325 325 324 326 322 327 332 331 331 331 331 329
303 303 303 302 302 303 302 299 298 298 299 302 300 300 299 299 302 303 302 304 304 305 304 305 308 312 316 321 323 325 329 329 327 324 325 326 326 321 328 331 331 331 330 330 330
303 303 303 302 302 303 300 298 298 300 302 301 303 303 299 300 299 299 299 301 304 307 306 307 310 314 316 318 321 324 320 327 329 325 325 326 325 323 330 331 330 330 330 330 330
303 305 304 303 302 301 298 298 298 300 299 299 300 300 299 303 302 300 299 303 307 308 306 307 310 313 315 317 318 320 316 316 315 315 324 327 327 324 327 331 331 330 329 329 330
304 305 304 302 302 298 299 298 300 301 301 299 301 302 303 304 303 301 300 305 307 307 307 307 307 309 312 313 316 317 320 317 316 316 322 327 327 324 323 331 332 331 329 328 329
303 305 304 302 299 299 297 299 299 300 300 299 301 303 303 304 305 303 303 305 306 306 307 307 306 308 308 309 312 317 317 320 317 316 316 316 327 327 324 323 330 331 331 329 329
304 304 302 300 299 298 299 299 298 301 290 297 299 303 303 302 303 302 304 306 307 307 305 306 306 307 307 308 312 316 314 316 316 316 320 319 327 328 326 324 321 327 331 329 328
304 302 300 298 297 298 296 297 300 301 291 294 299 301 300 303 303 302 303 306 306 305 306 306 309 310 310 313 311 313 315 316 315 315 316 319 322 326 326 327 324 324 330 330 328
302 300 298 298 300 297 297 299 301 292 289 293 298 299 299 301 303 304 304 306 306 305 307 306 307 308 309 310 312 312 312 313 315 317 320 319 322 328 327 327 324 327 330 328 328
300 298 298 301 301 297 300 301 293 291 291 293 297 299 298 300 301 302 304 303 303 304 306 303 307 310 308 311 312 313 316 317 321 320 323 322 326 327 324 324 324 325 323 322 322
298 298 301 301 300 298 300 294 291 280 282 294 298 298 298 299 301 300 303 302 305 308 307 305 305 312 310 310 314 313 315 318 318 322 321 322 327 326 316 317 325 324 322 320 318
298 301 301 301 301 300 299 288 291 284 296 298 296 290 292 297 300 300 301 303 305 307 307 307 306 311 310 310 312 312 316 313 316 315 318 322 317 315 315 319 322 314 316 315 315
299 300 300 300 300 301 294 295 292 296 300 300 296 289 297 296 298 300 297 299 306 304 305 308 310 307 312 311 308 313 311 316 315 319 320 322 322 321 317 314 312 311 310 309 312
300 300 299 300 300 301 290 285 291 299 301 300 295 294 293 295 293 295 295 298 305 305 305 308 307 306 310 312 313 312 314 314 315 316 318 321 322 310 309 312 310 308 306 305 306
300 295 299 300 297 293 287 289 297 297 299 300 301 299 295 295 292 297 300 300 301 304 306 305 307 307 310 309 309 311 311 316 316 317 316 317 320 308 309 311 308 305 303 304 306
300 299 299 300 289 284 288 296 297 298 299 300 301 301 301 299 300 293 299 302 302 303 306 305 308 306 307 310 309 313 313 314 313 314 316 318 319 309 309 310 307 304 303 304 304
299 291 299 299 297 290 287 291 296 298 298 299 299 298 299 300 298 297 300 300 302 303 304 306 308 309 311 311 309 312 312 312 314 314 315 315 312 310 309 307 305 303 303 304 304
300 295 295 285 294 297 297 294 296 293 298 298 297 297 299 300 295 297 298 298 300 301 302 306 309 309 309 309 308 310 311 310 314 314 314 313 313 310 310 307 304 303 304 304 303
299 296 295 293 296 296 295 296 295 291 297 297 296 297 298 300 300 300 297 297 299 298 300 303 307 305 307 305 305 309 310 311 313 312 313 312 313 305 305 306 304 304 303 302 302
299 297 297 293 295 295 293 293 295 296 296 296 297 297 297 298 298 297 297 297 297 297 298 303 305 305 305 303 303 305 306 310 310 310 312 314 311 306 307 306 304 305 305 305 304
Wind_Speed
7 7 7 8 8 10 11 13 15 15 14 15 14 14 17 19 18 17 17 17 20 20 18 20 15 11 10 7 10 3 2 3 4 4 5 9 4 6 8 13 11 15 7 6 28
6 7 9 6 8 10 12 14 14 13 14 15 17 19 17 16 19 19 11 12 18 23 22 17 15 9 5 5 8 7 5 7 4 4 5 7 10 17 8 10 9 12 11 11 33
5 7 8 7 9 11 12 14 14 12 12 14 16 18 17 17 16 6 7 9 10 15 18 16 14 9 6 9 7 7 6 5 8 11 12 8 5 17 10 4 16 24 21 22 38
5 7 7 8 10 12 12 13 13 13 14 15 16 17 17 13 2 5 5 7 7 8 12 12 10 6 5 6 14 6 11 15 15 18 7 5 7 7 19 13 25 22 22 31 40
5 6 7 8 10 12 12 13 13 13 13 13 16 17 17 9 7 8 10 12 12 8 7 7 11 9 10 5 13 8 7 17 18 19 15 17 14 9 20 14 17 22 27 34 39
8 8 8 8 10 11 12 12 12 14 14 13 15 17 15 6 7 11 15 13 10 11 9 8 9 14 17 14 13 6 19 17 19 17 6 5 11 8 15 18 17 26 32 37 40
10 9 9 9 10 11 12 12 12 14 13 12 14 16 16 9 11 12 15 16 15 10 16 12 13 17 13 7 18 16 11 10 22 24 6 9 9 6 12 21 25 30 33 37 39
12 9 9 10 10 11 13 13 13 14 13 12 13 13 9 8 10 9 15 16 13 13 14 15 16 20 14 13 8 4 6 15 19 17 9 7 10 8 14 25 24 28 32 36 39
11 11 11 10 10 11 13 14 14 14 11 10 10 8 9 8 9 14 18 17 17 15 15 18 15 8 11 9 11 10 12 23 13 19 11 13 5 13 18 23 21 24 30 32 35
9 9 8 8 9 11 13 13 12 8 5 6 3 7 4 13 24 23 19 18 18 16 14 5 6 4 5 10 20 12 3 13 14 21 22 18 12 12 18 22 23 25 26 29 33
8 6 6 7 8 11 13 10 6 2 12 5 11 13 20 21 22 18 14 10 9 6 3 5 4 11 12 15 19 19 5 5 5 10 13 26 16 18 13 22 18 18 21 27 35
7 5 5 5 6 8 10 6 6 6 9 7 6 10 13 14 13 16 15 4 0 4 3 3 10 10 10 17 14 17 16 12 9 12 9 19 26 14 12 15 20 25 24 25 29
7 5 4 3 4 6 7 7 7 7 4 8 9 7 10 14 9 20 12 4 2 4 6 9 8 3 9 13 18 14 19 20 10 8 12 11 20 18 8 8 19 18 24 28 37
7 5 3 2 2 3 3 6 6 7 4 6 5 3 8 19 6 21 7 4 2 5 6 8 15 12 13 15 12 6 8 9 6 2 9 8 5 26 18 12 9 19 20 26 33
7 5 3 1 3 3 4 4 3 3 4 6 7 9 19 3 12 4 14 2 6 6 1 5 3 7 8 12 13 3 6 10 7 5 3 10 7 9 27 18 12 14 25 30 35
7 5 3 1 2 4 3 3 2 6 5 8 7 9 12 6 4 8 8 5 5 5 7 14 19 10 7 14 18 6 3 6 9 5 5 16 14 9 22 27 12 13 21 30 35
8 6 3 1 2 3 3 3 5 4 4 8 5 7 9 5 6 4 5 6 2 5 4 6 8 7 5 9 7 8 5 2 3 2 7 8 12 5 20 27 18 16 25 25 31
9 6 3 2 3 2 3 5 4 2 5 3 5 9 5 8 4 7 6 5 2 4 3 3 6 6 6 8 5 8 4 4 4 1 6 10 8 3 3 4 32 27 28 28 28
10 6 3 2 2 2 2 4 6 6 4 6 6 6 5 5 3 6 4 4 4 3 2 4 5 3 5 15 8 4 4 4 4 3 5 2 1 1 5 7 18 22 32 27 28
10 6 3 1 1 1 4 3 2 4 2 2 2 2 3 5 5 5 4 4 8 2 12 3 7 4 3 4 6 4 8 4 1 2 5 5 2 2 1 4 9 14 19 27 30
10 4 2 1 1 1 3 5 3 4 4 2 2 3 5 3 2 4 3 8 4 8 13 6 3 6 6 2 3 4 2 3 3 3 3 4 2 3 9 6 8 9 15 25 28
9 2 3 3 3 3 2 4 2 4 5 3 3 4 4 3 3 3 4 4 14 16 7 3 3 6 4 4 4 4 4 3 2 1 2 3 3 8 9 7 13 14 15 21 25
7 4 4 4 2 2 4 2 3 3 4 2 3 3 1 3 5 5 5 7 8 8 4 5 2 5 7 2 2 2 3 3 3 3 1 3 2 7 3 7 11 18 20 22 24
6 2 3 3 4 6 3 3 2 8 8 5 3 1 4 3 4 5 4 6 9 8 18 9 2 5 2 3 3 1 3 3 2 2 2 1 4 1 1 3 8 14 19 23 22
5 2 4 1 3 3 2 4 2 2 3 3 2 6 3 4 3 4 3 6 10 9 7 5 4 5 5 6 4 3 3 1 2 2 1 1 5 7 3 4 6 16 20 21 22
8 6 5 4 8 5 4 5 4 4 4 3 4 3 3 4 4 8 3 1 3 9 6 6 3 5 3 6 5 3 2 8 5 1 2 5 4 3 6 5 8 13 20 20 22
11 9 4 6 5 4 4 5 5 5 4 5 4 4 7 8 7 14 11 11 10 6 5 6 5 4 5 7 6 3 3 3 1 2 2 1 3 5 2 4 9 13 17 19 20
Wind_Direction
15 2 356 357 0 2 357 350 344 342 342 340 327 316 318 320 313 308 297 277 265 266 276 285 294 307 289 254 225 212 61 286 283 179 240 171 163 180 179 158 177 187 184 199 178
12 2 350 358 358 359 356 353 345 338 340 343 341 335 335 324 318 312 309 291 263 263 268 286 299 304 269 257 203 171 163 213 225 285 284 212 183 172 167 161 198 194 205 204 177
10 5 11 3 356 355 355 357 357 350 344 342 337 335 336 331 329 31 39 21 327 264 270 274 286 292 247 233 213 193 195 212 276 304 290 277 228 183 155 230 201 203 192 180 177
8 3 3 357 351 351 349 355 358 358 348 342 343 337 336 330 12 23 318 335 340 324 277 277 276 255 237 210 215 234 210 218 252 262 310 286 264 205 184 210 219 217 210 183 183
341 347 346 345 350 350 344 344 350 350 345 339 340 338 339 324 294 324 318 294 292 297 313 287 269 270 248 224 229 227 200 226 251 269 272 276 257 226 213 199 204 210 200 194 191
302 310 319 327 337 344 338 334 338 342 340 336 336 332 329 310 325 320 320 317 296 292 295 296 262 269 288 268 233 190 214 229 236 255 252 270 268 230 220 208 191 193 194 196 195
289 294 296 310 325 331 335 330 329 332 333 329 328 325 312 306 326 332 335 322 299 305 302 295 305 279 307 267 267 255 246 242 230 233 232 17 274 237 240 191 186 189 191 194 198
283 288 295 297 306 321 330 325 326 324 323 318 316 315 281 335 339 346 341 334 325 293 300 293 306 300 271 281 297 220 213 233 222 215 208 144 259 244 223 188 185 188 190 195 198
274 281 289 296 300 315 324 325 322 317 315 308 311 303 294 341 322 322 334 327 329 309 294 289 301 269 270 257 269 219 233 233 238 215 202 188 232 247 210 197 184 186 191 192 198
264 276 285 300 308 318 324 331 321 322 326 328 334 311 304 318 314 307 306 318 315 312 313 288 248 237 237 229 233 249 267 246 238 220 218 215 218 265 201 196 194 192 190 192 197
255 257 283 301 312 324 337 351 347 325 331 285 295 282 305 328 314 322 322 317 310 283 228 256 234 242 263 246 258 267 202 236 274 302 259 215 226 227 220 210 195 191 194 196 203
237 241 275 297 318 336 354 42 38 333 315 343 333 299 337 337 316 338 333 310 184 261 303 269 248 266 283 295 287 260 237 238 274 276 300 226 222 226 203 217 207 195 196 197 197
217 226 257 281 313 346 17 39 7 347 311 308 332 328 346 329 307 311 328 294 270 264 243 239 257 267 269 302 262 241 252 232 243 295 276 294 238 216 229 224 213 210 204 201 201
198 211 214 258 310 355 3 3 357 348 58 297 346 2 338 326 282 326 333 278 240 296 313 242 243 219 245 258 249 254 229 233 187 223 251 160 301 217 206 215 201 194 192 195 201
182 187 200 250 316 345 348 17 350 344 15 303 311 328 331 312 298 342 331 242 235 233 255 266 251 216 250 267 186 269 167 200 169 219 250 220 255 233 199 219 203 186 184 194 202
170 172 163 260 350 6 43 26 337 42 272 332 329 351 346 334 304 288 300 295 279 289 225 252 262 269 254 265 208 159 202 235 232 210 235 241 214 218 190 197 194 171 177 187 194
166 165 171 304 11 39 41 345 31 115 324 315 332 336 330 296 315 321 321 316 292 328 316 307 225 177 148 270 199 201 179 240 255 190 262 239 208 220 203 192 182 173 159 178 189
167 160 164 116 56 57 11 46 82 220 248 308 295 308 332 354 312 331 318 316 301 245 292 311 323 171 143 234 212 199 215 145 171 295 298 224 199 184 340 305 191 161 162 182 185
166 163 163 108 67 44 348 54 205 196 250 324 316 32 327 333 348 349 311 290 294 319 257 309 278 294 149 283 166 183 185 158 108 221 234 323 306 49 44 75 136 139 155 166 184
172 168 156 148 24 135 75 245 176 219 265 280 302 124 320 303 344 333 316 277 328 343 327 285 295 281 265 150 261 274 156 157 145 31 328 279 184 102 51 135 128 143 144 157 178
172 152 170 179 130 118 153 219 246 240 222 214 263 288 249 283 255 290 262 289 356 328 325 296 265 292 315 341 329 346 245 84 113 116 253 287 17 325 314 182 151 130 138 156 174
168 80 174 171 73 56 135 191 360 272 246 244 255 248 234 241 264 273 270 211 308 323 313 302 284 282 262 307 293 147 304 344 100 163 239 259 318 311 303 160 147 136 139 160 172
155 143 167 176 131 276 296 231 237 250 219 200 258 202 272 268 296 227 274 286 307 333 337 347 274 302 322 307 193 310 105 340 342 44 278 305 353 324 21 103 134 133 141 152 161
159 81 122 139 106 136 163 263 239 215 248 248 271 306 282 261 237 284 303 295 310 287 319 304 229 282 279 296 323 219 176 262 280 141 213 317 359 250 327 116 126 128 139 151 160
169 157 155 190 210 172 152 183 214 272 235 232 302 233 256 282 288 256 321 313 305 343 321 329 297 298 288 342 323 285 173 281 287 264 312 79 54 3 39 161 129 145 155 155 164
166 151 135 104 132 161 197 219 215 268 204 238 212 272 275 260 238 297 310 277 294 326 319 320 302 325 288 345 340 310 163 179 254 233 307 90 49 13 42 107 139 160 156 165 181
186 160 150 150 161 177 219 202 213 184 232 236 233 301 287 271 281 280 270 263 275 302 312 312 321 346 297 330 329 31 316 203 236 324 347 72 127 153 66 196 180 185 191 191 193